| time (UTC) | temp F | wind direction | speed MPH | gust MPH | rain 1hr in | rain 24hr in | rain mn in | humidity % | barometer mb |
| 20260509004503 | 44 | 190 | 0.0 | 0.0 | 0.00 | 0.00 | 0.00 | 60 | 1012.0 |
| 20260509004004 | 45 | 0 | 0.0 | 0.0 | 0.00 | 0.00 | 0.00 | 60 | 1011.1 |
| 20260509003503 | 46 | 0 | 0.0 | 0.0 | 0.00 | 0.00 | 0.00 | 58 | 1011.0 |
| 20260509003003 | 46 | 190 | 0.0 | 0.0 | 0.00 | 0.00 | 0.00 | 57 | 1011.7 |
| 20260509002504 | 47 | 0 | 0.0 | 0.0 | 0.00 | 0.00 | 0.00 | 57 | 1010.7 |
| 20260509002004 | 47 | 0 | 0.0 | 0.0 | 0.00 | 0.00 | 0.00 | 56 | 1010.7 |
| 20260509001503 | 48 | 0 | 0.0 | 0.0 | 0.00 | 0.00 | 0.00 | 57 | 1010.8 |
| 20260509001004 | 48 | 0 | 0.0 | 0.0 | 0.00 | 0.00 | 0.00 | 55 | 1010.6 |
| 20260509000002 | 49 | 190 | 0.0 | 0.0 | 0.00 | 0.00 | 0.00 | 51 | 1011.4 |
| 20260508235503 | 50 | 0 | 0.0 | 0.0 | 0.00 | 0.00 | 0.00 | 49 | 1010.5 |
| 20260508234504 | 50 | 190 | 0.0 | 0.0 | 0.00 | 0.00 | 0.00 | 47 | 1011.1 |
| 20260508234003 | 51 | 0 | 0.0 | 0.0 | 0.00 | 0.00 | 0.00 | 47 | 1010.2 |
| 20260508233503 | 51 | 0 | 0.0 | 0.0 | 0.00 | 0.00 | 0.00 | 45 | 1010.2 |
| 20260508233003 | 51 | 190 | 0.0 | 1.0 | 0.00 | 0.00 | 0.00 | 44 | 1010.9 |
| 20260508232504 | 52 | 191 | 0.0 | 1.0 | 0.00 | 0.00 | 0.00 | 43 | 1010.1 |
| 20260508232003 | 52 | 0 | 0.0 | 0.0 | 0.00 | 0.00 | 0.00 | 43 | 1010.1 |
| 20260508231504 | 53 | 0 | 0.0 | 0.0 | 0.00 | 0.00 | 0.00 | 43 | 1010.0 |
| 20260508231004 | 53 | 0 | 0.0 | 0.0 | 0.00 | 0.00 | 0.00 | 40 | 1010.0 |
| 20260508230503 | 53 | 0 | 0.0 | 0.0 | 0.00 | 0.00 | 0.00 | 41 | 1009.9 |
| 20260508230005 | 53 | 190 | 0.0 | 0.0 | 0.00 | 0.00 | 0.00 | 41 | 1010.6 |
| 20260508230003 | 54 | 0 | 0.0 | 0.0 | 0.00 | 0.00 | 0.00 | 41 | 1009.8 |
| 20260508225504 | 54 | 191 | 0.0 | 2.0 | 0.00 | 0.00 | 0.00 | 40 | 1009.8 |
| 20260508225003 | 54 | 191 | 0.0 | 2.0 | 0.00 | 0.00 | 0.00 | 40 | 1009.6 |
| 20260508224503 | 54 | 191 | 0.0 | 1.0 | 0.00 | 0.00 | 0.00 | 41 | 1009.6 |
| 20260508224004 | 54 | 0 | 0.0 | 0.0 | 0.00 | 0.00 | 0.00 | 41 | 1009.6 |
| 20260508223504 | 54 | 0 | 0.0 | 0.0 | 0.00 | 0.00 | 0.00 | 38 | 1009.5 |
| 20260508223003 | 54 | 190 | 0.0 | 0.0 | 0.00 | 0.00 | 0.00 | 40 | 1010.3 |
| 20260508222503 | 55 | 0 | 0.0 | 0.0 | 0.00 | 0.00 | 0.00 | 41 | 1009.4 |
| 20260508221504 | 55 | 191 | 0.0 | 3.0 | 0.00 | 0.00 | 0.00 | 39 | 1009.4 |
| 20260508221003 | 55 | 191 | 0.0 | 3.0 | 0.00 | 0.00 | 0.00 | 38 | 1009.3 |
| 20260508220503 | 55 | 0 | 0.0 | 0.0 | 0.00 | 0.00 | 0.00 | 39 | 1009.4 |
| 20260508220003 | 55 | 190 | 0.0 | 0.0 | 0.00 | 0.00 | 0.00 | 38 | 1010.2 |
| 20260508215503 | 55 | 191 | 0.0 | 1.0 | 0.00 | 0.00 | 0.00 | 38 | 1009.3 |
| 20260508215003 | 55 | 191 | 0.0 | 1.0 | 0.00 | 0.00 | 0.00 | 40 | 1009.4 |
| 20260508214504 | 56 | 191 | 0.0 | 1.0 | 0.00 | 0.00 | 0.00 | 41 | 1009.4 |
| 20260508214004 | 55 | 191 | 0.0 | 1.0 | 0.00 | 0.00 | 0.00 | 40 | 1009.4 |
| 20260508213503 | 55 | 191 | 0.0 | 4.0 | 0.00 | 0.00 | 0.00 | 39 | 1009.4 |
| 20260508213003 | 55 | 191 | 0.0 | 4.0 | 0.00 | 0.00 | 0.00 | 41 | 1009.5 |
| 20260508212504 | 55 | 191 | 0.0 | 1.0 | 0.00 | 0.00 | 0.00 | 41 | 1009.5 |
| 20260508212003 | 55 | 191 | 0.0 | 1.0 | 0.00 | 0.00 | 0.00 | 41 | 1009.5 |
| 20260508211503 | 55 | 191 | 0.0 | 7.0 | 0.00 | 0.00 | 0.00 | 40 | 1009.4 |
| 20260508211004 | 55 | 191 | 0.0 | 7.0 | 0.00 | 0.00 | 0.00 | 42 | 1009.4 |
| 20260508210503 | 55 | 191 | 0.0 | 5.0 | 0.00 | 0.00 | 0.00 | 39 | 1009.4 |
| 20260508210004 | 55 | 190 | 0.0 | 1.0 | 0.00 | 0.00 | 0.00 | 39 | 1010.1 |
| 20260508205504 | 56 | 190 | 0.0 | 3.0 | 0.00 | 0.00 | 0.00 | 42 | 1009.4 |
| 20260508205004 | 55 | 191 | 0.0 | 4.0 | 0.00 | 0.00 | 0.00 | 40 | 1009.4 |
| 20260508204503 | 55 | 190 | 0.0 | 4.0 | 0.00 | 0.00 | 0.00 | 41 | 1010.1 |
| 20260508204004 | 55 | 191 | 0.0 | 1.0 | 0.00 | 0.00 | 0.00 | 42 | 1009.3 |
| 20260508203503 | 55 | 191 | 0.0 | 1.0 | 0.00 | 0.00 | 0.00 | 41 | 1009.4 |
| 20260508203003 | 55 | 190 | 0.0 | 1.0 | 0.00 | 0.00 | 0.00 | 41 | 1010.2 |
| 20260508202503 | 56 | 191 | 0.0 | 1.0 | 0.00 | 0.00 | 0.00 | 42 | 1009.4 |
| 20260508202004 | 56 | 191 | 0.0 | 1.0 | 0.00 | 0.00 | 0.00 | 41 | 1009.4 |
| 20260508201503 | 56 | 191 | 0.0 | 4.0 | 0.00 | 0.00 | 0.00 | 42 | 1009.4 |
| 20260508201003 | 56 | 191 | 0.0 | 4.0 | 0.00 | 0.00 | 0.00 | 43 | 1009.5 |
| 20260508200504 | 55 | 0 | 0.0 | 0.0 | 0.00 | 0.00 | 0.00 | 44 | 1009.6 |
| 20260508200003 | 54 | 190 | 0.0 | 1.0 | 0.00 | 0.00 | 0.00 | 44 | 1010.4 |
| 20260508195503 | 55 | 191 | 0.0 | 6.0 | 0.00 | 0.00 | 0.00 | 48 | 1009.8 |
| 20260508195003 | 54 | 191 | 0.0 | 6.0 | 0.00 | 0.00 | 0.00 | 46 | 1009.8 |
| 20260508194503 | 54 | 0 | 0.0 | 0.0 | 0.00 | 0.00 | 0.00 | 39 | 1009.8 |
| 20260508194003 | 54 | 191 | 0.0 | 1.0 | 0.00 | 0.00 | 0.00 | 41 | 1009.7 |
| 20260508193504 | 54 | 190 | 0.0 | 3.0 | 0.00 | 0.00 | 0.00 | 39 | 1009.6 |
| 20260508193006 | 55 | 190 | 0.0 | 3.0 | 0.00 | 0.00 | 0.00 | 37 | 1010.4 |
| 20260508193003 | 55 | 191 | 0.0 | 3.0 | 0.00 | 0.00 | 0.00 | 37 | 1009.7 |
| 20260508192503 | 55 | 191 | 0.0 | 3.0 | 0.00 | 0.00 | 0.00 | 40 | 1009.6 |
| 20260508192004 | 55 | 0 | 0.0 | 0.0 | 0.00 | 0.00 | 0.00 | 38 | 1009.6 |
| 20260508191503 | 55 | 190 | 0.0 | 0.0 | 0.00 | 0.00 | 0.00 | 39 | 1010.4 |
| 20260508191003 | 55 | 191 | 0.0 | 3.0 | 0.00 | 0.00 | 0.00 | 41 | 1009.6 |
| 20260508190504 | 55 | 191 | 0.0 | 3.0 | 0.00 | 0.00 | 0.00 | 40 | 1009.6 |
| 20260508190004 | 55 | 191 | 0.0 | 2.0 | 0.00 | 0.00 | 0.00 | 40 | 1009.6 |
| 20260508190002 | 54 | 190 | 0.0 | 0.0 | 0.00 | 0.00 | 0.00 | 40 | 1010.3 |
| 20260508185503 | 54 | 191 | 0.0 | 6.0 | 0.00 | 0.00 | 0.00 | 42 | 1009.5 |
| 20260508185003 | 55 | 191 | 0.0 | 6.0 | 0.00 | 0.00 | 0.00 | 38 | 1009.5 |
| 20260508184504 | 55 | 191 | 0.0 | 1.0 | 0.00 | 0.00 | 0.00 | 37 | 1009.4 |
| 20260508184502 | 54 | 190 | 0.0 | 0.0 | 0.00 | 0.00 | 0.00 | 37 | 1010.2 |
| 20260508184003 | 55 | 191 | 0.0 | 1.0 | 0.00 | 0.00 | 0.00 | 37 | 1009.4 |
| 20260508183104 | 54 | 190 | 0.0 | 3.0 | 0.00 | 0.00 | 0.00 | 38 | 1010.2 |
| 20260508181553 | 55 | 190 | 0.0 | 1.0 | 0.00 | 0.00 | 0.00 | 35 | 1010.1 |
| 20260508180053 | 55 | 190 | 0.0 | 2.0 | 0.00 | 0.00 | 0.00 | 35 | 1010.2 |
| 20260508174603 | 55 | 190 | 0.0 | 0.0 | 0.00 | 0.00 | 0.00 | 34 | 1010.0 |
| 20260508173052 | 57 | 190 | 0.0 | 2.0 | 0.00 | 0.00 | 0.00 | 31 | 1009.9 |
| 20260508171557 | 57 | 190 | 0.0 | 4.0 | 0.00 | 0.00 | 0.00 | 34 | 1009.7 |
| 20260508170053 | 58 | 190 | 0.0 | 1.0 | 0.00 | 0.00 | 0.00 | 31 | 1009.6 |
| 20260508164550 | 59 | 190 | 0.0 | 6.0 | 0.00 | 0.00 | 0.00 | 32 | 1009.7 |
| 20260508163111 | 60 | 190 | 0.0 | 4.0 | 0.00 | 0.00 | 0.00 | 31 | 1009.7 |
| 20260508161546 | 59 | 190 | 0.0 | 3.0 | 0.00 | 0.00 | 0.00 | 31 | 1009.9 |
| 20260508160045 | 59 | 190 | 0.0 | 1.0 | 0.00 | 0.00 | 0.00 | 32 | 1010.1 |
| 20260508154551 | 58 | 190 | 0.0 | 12.0 | 0.00 | 0.00 | 0.00 | 32 | 1010.4 |
| 20260508153045 | 59 | 190 | 0.0 | 5.0 | 0.00 | 0.00 | 0.00 | 34 | 1010.5 |
| 20260508151543 | 58 | 190 | 0.0 | 2.0 | 0.00 | 0.00 | 0.00 | 38 | 1010.4 |
| 20260508150040 | 56 | 190 | 0.0 | 2.0 | 0.00 | 0.00 | 0.00 | 39 | 1010.2 |
| 20260508144541 | 55 | 190 | 0.0 | 0.0 | 0.00 | 0.00 | 0.00 | 36 | 1010.4 |
| 20260508143039 | 57 | 190 | 0.0 | 1.0 | 0.00 | 0.00 | 0.00 | 34 | 1010.4 |
| 20260508141538 | 58 | 190 | 0.0 | 0.0 | 0.00 | 0.00 | 0.00 | 38 | 1010.5 |
| 20260508140035 | 56 | 190 | 0.0 | 3.0 | 0.00 | 0.00 | 0.00 | 36 | 1010.5 |
| 20260508134538 | 56 | 190 | 0.0 | 1.0 | 0.00 | 0.00 | 0.00 | 37 | 1010.9 |
| 20260508133034 | 55 | 190 | 0.0 | 2.0 | 0.00 | 0.00 | 0.00 | 40 | 1011.0 |
| 20260508131528 | 53 | 190 | 0.0 | 2.0 | 0.00 | 0.00 | 0.00 | 40 | 1011.1 |
| 20260508130026 | 52 | 190 | 0.0 | 4.0 | 0.00 | 0.00 | 0.00 | 44 | 1011.1 |
| 20260508124524 | 53 | 190 | 0.0 | 0.0 | 0.00 | 0.00 | 0.00 | 43 | 1011.1 |
| 20260508123022 | 50 | 190 | 0.0 | 2.0 | 0.00 | 0.00 | 0.00 | 51 | 1011.1 |
| 20260508121517 | 48 | 190 | 0.0 | 6.0 | 0.00 | 0.00 | 0.00 | 50 | 1011.0 |
| 20260508120015 | 47 | 190 | 0.0 | 1.0 | 0.00 | 0.00 | 0.00 | 59 | 1010.9 |
| 20260508114509 | 42 | 190 | 0.0 | 0.0 | 0.00 | 0.00 | 0.00 | 64 | 1010.9 |
| 20260508113005 | 39 | 190 | 0.0 | 0.0 | 0.00 | 0.00 | 0.00 | 81 | 1010.8 |
| 20260508111502 | 36 | 190 | 0.0 | 0.0 | 0.00 | 0.00 | 0.00 | 82 | 1010.8 |
| 20260508110135 | 35 | 190 | 0.0 | 0.0 | 0.00 | 0.00 | 0.00 | 82 | 1010.8 |
| 20260508104604 | 35 | 190 | 0.0 | 0.0 | 0.00 | 0.00 | 0.00 | 81 | 1010.7 |
| 20260508103059 | 35 | 190 | 0.0 | 0.0 | 0.00 | 0.00 | 0.00 | 81 | 1010.5 |
| 20260508101558 | 35 | 190 | 0.0 | 0.0 | 0.00 | 0.00 | 0.00 | 80 | 1010.4 |
| 20260508100053 | 35 | 190 | 0.0 | 0.0 | 0.00 | 0.00 | 0.00 | 80 | 1010.2 |
| 20260508094555 | 36 | 190 | 0.0 | 0.0 | 0.00 | 0.00 | 0.00 | 81 | 1009.9 |
| 20260508093058 | 35 | 190 | 0.0 | 0.0 | 0.00 | 0.00 | 0.00 | 81 | 1009.7 |
| 20260508091550 | 35 | 190 | 0.0 | 0.0 | 0.00 | 0.00 | 0.00 | 81 | 1009.7 |
| 20260508090106 | 35 | 190 | 0.0 | 0.0 | 0.00 | 0.00 | 0.00 | 81 | 1009.7 |
| 20260508084548 | 35 | 190 | 0.0 | 0.0 | 0.00 | 0.00 | 0.00 | 81 | 1009.7 |
| 20260508083048 | 34 | 190 | 0.0 | 0.0 | 0.00 | 0.00 | 0.00 | 81 | 1009.9 |
| 20260508081557 | 34 | 190 | 0.0 | 0.0 | 0.00 | 0.00 | 0.00 | 81 | 1009.8 |
| 20260508080046 | 33 | 190 | 0.0 | 0.0 | 0.00 | 0.00 | 0.00 | 81 | 1009.7 |
| 20260508074545 | 33 | 190 | 0.0 | 0.0 | 0.00 | 0.02 | 0.00 | 82 | 1009.6 |
| 20260508073046 | 33 | 190 | 0.0 | 0.0 | 0.00 | 0.02 | 0.00 | 81 | 1009.5 |
| 20260508071544 | 33 | 190 | 0.0 | 0.0 | 0.00 | 0.02 | 0.00 | 81 | 1009.3 |
| 20260508070042 | 32 | 190 | 0.0 | 0.0 | 0.00 | 0.02 | 0.00 | 81 | 1009.1 |
| 20260508064540 | 32 | 190 | 0.0 | 0.0 | 0.00 | 0.03 | 0.00 | 81 | 1008.7 |
| 20260508063038 | 33 | 190 | 0.0 | 0.0 | 0.00 | 0.03 | 0.00 | 81 | 1008.6 |
| 20260508061538 | 33 | 190 | 0.0 | 0.0 | 0.00 | 0.03 | 0.00 | 81 | 1008.4 |
| 20260508060041 | 33 | 190 | 0.0 | 0.0 | 0.00 | 0.03 | 0.00 | 80 | 1008.4 |
| 20260508054540 | 34 | 190 | 0.0 | 0.0 | 0.00 | 0.03 | 0.00 | 80 | 1008.4 |
| 20260508053032 | 34 | 190 | 0.0 | 0.0 | 0.00 | 0.03 | 0.00 | 80 | 1008.7 |
| 20260508051531 | 34 | 190 | 0.0 | 0.0 | 0.00 | 0.03 | 0.00 | 79 | 1008.9 |
| 20260508050035 | 35 | 190 | 0.0 | 0.0 | 0.00 | 0.03 | 0.00 | 79 | 1008.9 |
| 20260508044526 | 35 | 190 | 0.0 | 0.0 | 0.00 | 0.03 | 0.00 | 78 | 1008.8 |
| 20260508043024 | 36 | 190 | 0.0 | 0.0 | 0.00 | 0.03 | 0.00 | 77 | 1009.0 |
| 20260508041531 | 36 | 190 | 0.0 | 0.0 | 0.00 | 0.03 | 0.00 | 77 | 1009.1 |
| 20260508040005 | 37 | 0 | 0.0 | 0.0 | 0.00 | 0.00 | 0.00 | 77 | 1008.6 |
| 20260508035004 | 37 | 0 | 0.0 | 0.0 | 0.00 | 0.00 | 0.00 | 75 | 1008.6 |
| 20260508034503 | 37 | 190 | 0.0 | 0.0 | 0.00 | 0.06 | 0.03 | 76 | 1009.1 |
| 20260508034004 | 38 | 0 | 0.0 | 0.0 | 0.00 | 0.00 | 0.00 | 76 | 1008.5 |
| 20260508033503 | 37 | 0 | 0.0 | 0.0 | 0.00 | 0.00 | 0.00 | 75 | 1008.4 |
| 20260508033008 | 37 | 190 | 0.0 | 0.0 | 0.00 | 0.06 | 0.03 | 74 | 1009.1 |
| 20260508033004 | 38 | 0 | 0.0 | 0.0 | 0.00 | 0.00 | 0.00 | 74 | 1008.5 |
| 20260508032504 | 38 | 0 | 0.0 | 0.0 | 0.00 | 0.00 | 0.00 | 73 | 1008.5 |
| 20260508032004 | 38 | 0 | 0.0 | 0.0 | 0.00 | 0.00 | 0.00 | 72 | 1008.5 |
| 20260508031503 | 38 | 0 | 0.0 | 0.0 | 0.00 | 0.00 | 0.00 | 71 | 1008.5 |
| 20260508030505 | 39 | 0 | 0.0 | 0.0 | 0.00 | 0.06 | 0.00 | 70 | 1008.6 |
| 20260508030003 | 39 | 0 | 0.0 | 0.0 | 0.00 | 0.06 | 0.00 | 70 | 1008.6 |
| 20260508025503 | 39 | 0 | 0.0 | 0.0 | 0.00 | 0.06 | 0.00 | 71 | 1008.6 |
| 20260508025003 | 40 | 0 | 0.0 | 0.0 | 0.00 | 0.06 | 0.00 | 71 | 1008.6 |
| 20260508024504 | 40 | 0 | 0.0 | 0.0 | 0.00 | 0.08 | 0.00 | 70 | 1008.4 |
| 20260508024502 | 39 | 190 | 0.0 | 0.0 | 0.00 | 0.12 | 0.03 | 70 | 1009.1 |
| 20260508024003 | 40 | 0 | 0.0 | 0.0 | 0.00 | 0.08 | 0.00 | 70 | 1008.4 |
| 20260508023004 | 40 | 0 | 0.0 | 0.0 | 0.00 | 0.09 | 0.00 | 68 | 1008.3 |
| 20260508023002 | 40 | 190 | 0.0 | 0.0 | 0.00 | 0.12 | 0.03 | 68 | 1008.9 |
| 20260508022503 | 41 | 0 | 0.0 | 0.0 | 0.00 | 0.11 | 0.00 | 68 | 1008.4 |
| 20260508022004 | 41 | 0 | 0.0 | 0.0 | 0.00 | 0.11 | 0.00 | 67 | 1008.4 |
| 20260508021502 | 41 | 190 | 0.0 | 0.0 | 0.00 | 0.12 | 0.03 | 66 | 1009.1 |
| 20260508021004 | 41 | 0 | 0.0 | 0.0 | 0.00 | 0.12 | 0.00 | 63 | 1008.4 |
| 20260508020503 | 42 | 0 | 0.0 | 0.0 | 0.00 | 0.12 | 0.00 | 64 | 1008.4 |
| 20260508020004 | 42 | 0 | 0.0 | 0.0 | 0.00 | 0.12 | 0.00 | 62 | 1008.5 |
| 20260508015504 | 42 | 0 | 0.0 | 0.0 | 0.00 | 0.12 | 0.00 | 60 | 1008.5 |
| 20260508015003 | 43 | 0 | 0.0 | 0.0 | 0.00 | 0.12 | 0.00 | 61 | 1008.4 |
| 20260508014505 | 43 | 190 | 0.0 | 0.0 | 0.00 | 0.15 | 0.03 | 62 | 1009.0 |
| 20260508014003 | 43 | 0 | 0.0 | 0.0 | 0.00 | 0.13 | 0.00 | 60 | 1008.5 |
| 20260508013004 | 44 | 0 | 0.0 | 0.0 | 0.00 | 0.13 | 0.00 | 57 | 1008.4 |
| 20260508013002 | 43 | 190 | 0.0 | 0.0 | 0.00 | 0.15 | 0.03 | 57 | 1009.0 |
| 20260508012503 | 44 | 0 | 0.0 | 0.0 | 0.00 | 0.13 | 0.00 | 57 | 1008.3 |
| 20260508012004 | 44 | 0 | 0.0 | 0.0 | 0.00 | 0.13 | 0.00 | 58 | 1008.2 |
| 20260508011503 | 44 | 190 | 0.0 | 0.0 | 0.00 | 0.15 | 0.03 | 55 | 1008.7 |
| 20260508011003 | 45 | 0 | 0.0 | 0.0 | 0.00 | 0.13 | 0.00 | 52 | 1008.0 |
| 20260508010503 | 46 | 0 | 0.0 | 0.0 | 0.00 | 0.15 | 0.00 | 47 | 1007.9 |
| 20260508010003 | 46 | 0 | 0.0 | 0.0 | 0.00 | 0.15 | 0.00 | 47 | 1007.8 |
| 20260508005503 | 46 | 0 | 0.0 | 0.0 | 0.00 | 0.15 | 0.00 | 43 | 1007.8 |
| 20260508005003 | 47 | 0 | 0.0 | 0.0 | 0.00 | 0.15 | 0.00 | 43 | 1007.6 |